Zurück zum Katalog

STARLINK-30277

AktivKommunikationVLEO
NORAD 57645·PAYLOAD·🇺🇸 United States

Gestartet Aug 17, 2023 von Cape Canaveral Space Force Station

Loading…

Nächste Überflüge (nächste 24 Stunden)

TLE

AktuellSource: CelesTrak SupGP

Epoche: Sep 14, 2026, 21:41 UTC

1 57645C 23122P   26257.90395833 -.00073690  00000+0 -26688-2 0  2574
2 57645  43.0031 321.8191 0001809 266.1057 141.4751 15.27617897    17

Verfolge STARLINK-30277 in Echtzeit mit AllMySat

Download on the App Store